Burbank, CA

7:53 PM PDT on September 20, 2017 (GMT -0700)
Burbank-Glendale-Pasadena

Weather History for KBUR - May, 2013

Change the Weather History Date:

Saturday, May 25, 2013

  Actual Average Record
Temperature  
Mean Temperature 67 °F 66 °F  
Max Temperature 75 °F 77 °F 103 °F (1974)
Min Temperature 59 °F 56 °F 43 °F (1980)
Degree Days  
Heating Degree Days 0 1  
Month to date heating degree days 4 51  
Since 1 July heating degree days 1105 1548  
Cooling Degree Days 2 3  
Month to date cooling degree days 158 52  
Year to date cooling degree days 285 103  
Growing Degree Days 17 (Base 50)    
Moisture  
Dew Point 51 °F    
Average Humidity 59    
Maximum Humidity 75    
Minimum Humidity 43    
Precipitation  
Precipitation 0.00 in 0.01 in 0.02 in (1995)
Month to date precipitation 0.70 0.31  
Year to date precipitation 2.60 12.40  
Since 1 July precipitation 5.40  
Sea Level Pressure  
Sea Level Pressure 29.96 in    
Wind  
Wind Speed 6 mph (SSE)    
Max Wind Speed 14 mph    
Max Gust Speed 20 mph    
Visibility 10 miles    
Events      
T = Trace of Precipitation, MM = Missing Value Source: NWS Daily Summary

Daily Weather History Graph

Daily Weather History Graph

Search for Another Location

Airport or City:

Trip Planner

Search our weather history database for the weather conditions in past years. The results will help you decide how hot, cold, wet, or windy it might be!

Date:

Astronomy

May. 25, 2013 Rise Set
Actual Time 5:45 AM PDT 7:55 PM PDT
Civil Twilight 5:16 AM PDT 8:24 PM PDT
Nautical Twilight 4:42 AM PDT 8:59 PM PDT
Astronomical Twilight 4:04 AM PDT 9:36 PM PDT
Moon 8:49 PM PDT (5/25) 6:16 AM PDT (5/25)
Length of Visible Light 15h 07m
Length of Day
14h 10m
Waxing Gibbous, 99% of the Moon is Illuminated
May 25
Waxing Gibbous
May 31
Last Quarter
Jun 8
New
Jun 16
First Quarter
Jun 23
Full

Hourly Weather History & Observations

Time (PDT) Temp. Dew Point Humidity Pressure Visibility Wind Dir Wind Speed Gust Speed Precip Events Conditions
12:53 AM 62.1 °F 53.1 °F 72% 29.95 in 10.0 mi East 5.8 mph - N/A   Clear
1:53 AM 61.0 °F 52.0 °F 72% 29.94 in 10.0 mi SE 6.9 mph - N/A   Clear
2:53 AM 60.1 °F 52.0 °F 75% 29.94 in 10.0 mi ESE 4.6 mph - N/A   Partly Cloudy
3:02 AM 60.8 °F 51.8 °F 72% 29.97 in 10.0 mi SE 4.6 mph - N/A   Mostly Cloudy
3:49 AM 60.8 °F 51.8 °F 72% 29.97 in 10.0 mi SE 4.6 mph - N/A   Overcast
3:53 AM 60.1 °F 52.0 °F 75% 29.94 in 10.0 mi SE 4.6 mph - N/A   Overcast
4:53 AM 59.0 °F 52.0 °F 78% 29.95 in 10.0 mi East 3.5 mph - N/A   Overcast
5:53 AM 60.1 °F 51.1 °F 72% 29.95 in 10.0 mi ENE 4.6 mph - N/A   Overcast
6:53 AM 61.0 °F 50.0 °F 67% 29.96 in 10.0 mi SSE 4.6 mph - N/A   Overcast
7:53 AM 62.1 °F 52.0 °F 70% 29.98 in 9.0 mi SSE 4.6 mph - N/A   Overcast
8:53 AM 62.1 °F 51.1 °F 67% 29.98 in 10.0 mi SSE 4.6 mph - N/A   Overcast
9:53 AM 64.0 °F 50.0 °F 60% 29.98 in 10.0 mi South 5.8 mph - N/A   Overcast
10:53 AM 64.9 °F 50.0 °F 58% 29.99 in 10.0 mi South 9.2 mph - N/A   Overcast
11:25 AM 66.2 °F 48.2 °F 52% 30.02 in 10.0 mi Variable 4.6 mph - N/A   Mostly Cloudy
11:53 AM 69.1 °F 48.9 °F 49% 29.99 in 10.0 mi South 8.1 mph - N/A   Scattered Clouds
12:53 PM 71.1 °F 51.1 °F 49% 29.99 in 10.0 mi SSW 10.4 mph - N/A   Scattered Clouds
1:53 PM 71.1 °F 52.0 °F 51% 29.99 in 10.0 mi SSE 8.1 mph 16.1 mph N/A   Clear
2:53 PM 73.9 °F 51.1 °F 45% 29.96 in 10.0 mi South 3.5 mph - N/A   Clear
3:53 PM 75.0 °F 51.1 °F 43% 29.95 in 10.0 mi South 10.4 mph - N/A   Clear
4:53 PM 73.9 °F 50.0 °F 43% 29.94 in 10.0 mi SSE 12.7 mph - N/A   Clear
5:53 PM 71.1 °F 52.0 °F 51% 29.94 in 10.0 mi South 9.2 mph - N/A   Clear
6:53 PM 70.0 °F 51.1 °F 51% 29.94 in 10.0 mi South 8.1 mph - N/A   Clear
7:53 PM 66.0 °F 52.0 °F 60% 29.94 in 10.0 mi South 6.9 mph - N/A   Clear
8:53 PM 64.9 °F 52.0 °F 63% 29.95 in 10.0 mi South 4.6 mph - N/A   Clear
9:53 PM 63.0 °F 52.0 °F 67% 29.96 in 10.0 mi SSE 4.6 mph - N/A   Clear
10:53 PM 63.0 °F 53.1 °F 70% 29.97 in 10.0 mi East 3.5 mph - N/A   Clear
11:53 PM 63.0 °F 53.1 °F 70% 29.96 in 10.0 mi ESE 5.8 mph - N/A   Clear